Weather History for Holland, MI

Change the Weather History Date:

Saturday, July 20, 2013

  Actual Average Record
Temperature  
Mean Temperature 79 °F 73 °F  
Max Temperature 88 °F 82 °F 97 °F (2011)
Min Temperature 70 °F 63 °F 43 °F (1971)
Degree Days  
Heating Degree Days 0 0  
Month to date heating degree days 0 0  
Since 1 June heating degree days 34 48  
Since 1 July heating degree days 0 0  
Cooling Degree Days 14 8  
Month to date cooling degree days 236 154  
Year to date cooling degree days 490 342  
Since 1 June cooling degree days 400 300  
Growing Degree Days 28 (Base 50)    
Moisture  
Dew Point 62 °F    
Average Humidity 57    
Maximum Humidity 82    
Minimum Humidity 32    
Precipitation  
Precipitation 0.00 in 0.08 in 1.51 in (1990)
Month to date precipitation 0.77 1.86  
Year to date precipitation 23.93 18.67  
Sea Level Pressure  
Sea Level Pressure 29.86 in    
Wind  
Wind Speed 5 mph (NW)    
Max Wind Speed 15 mph    
Max Gust Speed 20 mph    
Visibility 10 miles    
Events      
T = Trace of Precipitation, MM = Missing Value Source: NWS Daily Summary

Daily Weather History Graph

Daily Weather History Graph

Search for Another Location

Airport:

Trip Planner

Search our weather history database for the weather conditions in past years. The results will help you decide how hot, cold, wet, or windy it might be!

Date:

Astronomy

Jul. 20, 2013 Rise Set
Actual Time 6:24 AM EDT 9:16 PM EDT
Civil Twilight 5:50 AM EDT 9:49 PM EDT
Nautical Twilight 5:08 AM EDT 10:32 PM EDT
Astronomical Twilight 4:19 AM EDT 11:20 PM EDT
Moon 7:19 PM EDT (7/20) 4:03 AM EDT (7/20)
Length of Visible Light 15h 58m
Length of Day
14h 52m
Waxing Gibbous, 93% of the Moon is Illuminated
Jul 20
Waxing Gibbous
Jul 22
Full
Jul 29
Last Quarter
Aug 6
New
Aug 14
First Quarter

Hourly Weather History & Observations

Time (EDT) Temp. Heat Index Dew Point Humidity Pressure Visibility Wind Dir Wind Speed Gust Speed Precip Events Conditions
12:53 AM 81.0 °F 84.1 °F 69.1 °F 67% 29.75 in 10.0 mi West 5.8 mph - N/A   Mostly Cloudy
1:53 AM 79.0 °F - 71.1 °F 77% 29.76 in 10.0 mi West 3.5 mph - N/A   Clear
2:53 AM 78.1 °F - 71.1 °F 79% 29.76 in 10.0 mi NW 4.6 mph - N/A   Clear
3:53 AM 75.9 °F - 69.1 °F 79% 29.77 in 10.0 mi Variable 3.5 mph - N/A   Clear
4:53 AM 75.0 °F - 66.9 °F 76% 29.78 in 10.0 mi NNE 5.8 mph - N/A   Clear
5:53 AM 73.0 °F - 64.0 °F 73% 29.79 in 10.0 mi Calm Calm - N/A   Clear
6:53 AM 70.0 °F - 63.0 °F 78% 29.82 in 10.0 mi Calm Calm - N/A   Clear
7:53 AM 75.0 °F - 63.0 °F 66% 29.84 in 10.0 mi Calm Calm - N/A   Mostly Cloudy
8:53 AM 78.1 °F - 62.1 °F 58% 29.86 in 10.0 mi East 5.8 mph - N/A   Clear
9:53 AM 81.0 °F 81.9 °F 62.1 °F 52% 29.86 in 10.0 mi East 5.8 mph - N/A   Clear
10:53 AM 84.9 °F 83.9 °F 57.0 °F 38% 29.87 in 10.0 mi NNE 5.8 mph - N/A   Clear
11:53 AM 86.0 °F 84.2 °F 54.0 °F 33% 29.88 in 10.0 mi Calm Calm - N/A   Clear
12:53 PM 87.1 °F 86.1 °F 57.9 °F 37% 29.88 in 10.0 mi West 10.4 mph - N/A   Clear
1:53 PM 86.0 °F 84.9 °F 57.0 °F 37% 29.89 in 10.0 mi West 9.2 mph 19.6 mph N/A   Clear
2:53 PM 86.0 °F 85.4 °F 59.0 °F 40% 29.89 in 10.0 mi WNW 8.1 mph 18.4 mph N/A   Clear
3:53 PM 84.9 °F 84.8 °F 60.1 °F 43% 29.88 in 10.0 mi WNW 10.4 mph 17.3 mph N/A   Clear
4:53 PM 84.0 °F 84.9 °F 63.0 °F 49% 29.89 in 10.0 mi NW 9.2 mph - N/A   Partly Cloudy
5:53 PM 82.9 °F 83.3 °F 61.0 °F 47% 29.88 in 10.0 mi WNW 9.2 mph 16.1 mph N/A   Clear
6:53 PM 82.9 °F 83.3 °F 61.0 °F 47% 29.88 in 10.0 mi NW 8.1 mph - N/A   Clear
7:53 PM 81.0 °F 81.3 °F 59.0 °F 47% 29.90 in 10.0 mi WNW 4.6 mph - N/A   Clear
8:53 PM 78.1 °F - 59.0 °F 52% 29.91 in 10.0 mi West 3.5 mph - N/A   Clear
9:53 PM 75.9 °F - 61.0 °F 60% 29.92 in 10.0 mi Calm Calm - N/A   Clear
10:53 PM 75.0 °F - 55.9 °F 51% 29.94 in 10.0 mi NNE 4.6 mph - N/A   Clear
11:53 PM 73.0 °F - 55.0 °F 53% 29.94 in 10.0 mi NNE 8.1 mph - N/A   Clear